SCP
0 0 0 0 0 0 0 0 0 0 0 0 0 0 0 0 -0 0 0 0 0 0 0 0 0 0 0 0 0 0 0 0 0 0 0 0 0 0 0 0 0 0 0 0 0
0 0 0 0 0 0 0 0 0 0 0 0 0 0 0 0 0 0 0 0 0 0 0 0 0 0 0 0 0 0 0 0 0 0 0 0 0 0 0 0 0 0 0 0 0
0 0 0 0 0 0 0 0 0 0 0 0 0 0 0 0 0 0 0 0 0 -0 -0 0 0 0 0 0 0 0 0 0 0 0 0 0 0 0 0 0 0 0 -0 0 0
0 0 0 0 0 0 0 0 0 0 0 0 0 0 0 0 0 0 0 0 0 0 0 0 0 0 0 0 0 0 0 0 0 0 0 0 0 0 0 0 0 0 0 0 0
0 0 0 0 0 0 0 0 0 0 0 0 0 0 0 0 0 0 0 0 0 0 0 0 0 0 0 0 0 0 0 0 0 0 0 0 0 0 0 0 0 0 0 0 0
0 0 0 0 0 0 0 0 0 0 0 0 0 0 0 0 0 0 0 0 0 0 0 0 0 0 0 0 0 0 0 0 0 0 0 0 0 0 0 0 0 0 0 0 0
0 0 0 0 0 0 0 0 0 0 0 0 0 0 0 0 0 0 0 0 0 0 0 0 0 0 0 0 0 0 0 0 0 0 0 0 0 0 0 0 0 0 0 0 0
0 0 0 0 0 0 0 0 0 0 0 0 0 0 0 0 0 0 0 0 0 0 0 0 0 0 0 0 0 0 0 0 0 0 0 0 0 0 0 0 0 0 0 0 0
0 0 0 0 0 0 0 0 0 0 0 0 0 0 0 0 0 0 0 0 0 0 0 0 0 0 0 0 0 0 0 0 0 0 0 0 0 0 0 0 0 0 0 0 0
0 0 0 0 0 0 0 0 0 0 0 0 0 0 0 0 0 0 0 0 0 0 0 0 0 0 0 0 0 0 0 0 0 0 0 0 0 0 0 0 0 0 0 0 0
0 0 0 0 0 0 0 0 0 0 0 0 0 0 0 0 0 0 0 0 0 0 0 0 0 0 0 0 0 0 0 0 0 0 0 0 0 0 0 0 0 0 0 0 0
0 0 0 0 0 0 0 0 0 0 0 0 0 0 0 0 0 0 0 0 0 0 0 0 0 0 0 0 0 0 0 0 0 0 0 0 0 0 0 -0 0 0 0 0 0
0 0 0 0 0 0 0 0 0 0 0 0 0 0 0 0 0 0 0 0 0 0 0 0 0 0 0 0 0 0 0 0 0 0 0 0 0 0 0 0 0 0 0 0 0
0 0 0 0 0 0 0 0 0 0 0 0 0 0 0 0 0 0 0 0 0 0 0 0 0 0 0 0 0 0 0 0 0 0 0 0 0 0 -0 0 0 0 0 0 0
0 0 0 0 0 0 0 0 0 0 0 0 0 0 0 0 0 0 0 0 0 0 0 0 0 0 0 0 0 0 0 0 0 0 0 0 0 -0 0 0 0 0 0 0 0
0 0 0 0 0 0 0 0 0 0 0 0 0 0 0 0 0 0 0 0 0 0 0 0 0 0 0 0 0 0 0 0 0 0 0 0 0 0 0 0 0 0 0 0 0
0 0 0 0 0 0 0 0 0 0 0 0 0 0 0 0 0 0 0 0 0 0 0 0 0 0 0 0 0 0 0 0 0 0 0 0 0 0 0 0 0 0 0 0 0
0 0 0 0 0 0 0 0 0 0 0 0 0 0 0 0 0 0 0 0 0 0 0 0 0 0 0 0 0 0 0 0 0 0 0 0 0 0 0 0 0 0 0 0 0
0 0 0 0 0 0 0 0 0 0 0 0 0 0 0 0 0 0 0 0 0 0 0 0 0 0 0 0 0 0 0 0 0 0 0 0 0 0 0 0 0 0 0 0 0
0 0 0 0 0 0 0 0 0 0 0 0 0 0 0 0 0 0 0 0 0 0 0 0 0 0 0 0 0 0 0 0 0 0 0 0 0 0 0 0 0 0 0 0 0
0 0 0 0 0 0 0 0 0 0 0 0 0 0 0 0 0 0 0 0 0 0 0 0 0 0 0 0 0 0 0 0 0 0 0 0 0 0 0 0 0 0 0 0 0
0 0 0 0 0 0 0 0 0 0 0 0 0 0 0 0 0 0 0 0 0 0 0 0 0 0 0 0 0 0 0 0 0 0 0 0 0 0 0 0 -0 -0 0 0 0
0 0 0 0 0 0 0 0 0 0 0 0 0 0 0 0 0 0 0 0 0 0 0 0 0 0 0 0 0 0 0 0 0 0 0 0 0 0 0 0 0 -0 0 0 0
0 0 0 0 0 0 0 0 0 0 0 0 0 0 0 0 0 0 0 0 0 0 0 0 0 0 0 0 0 0 0 0 0 0 0 0 0 0 0 0 0 0 -0 -0 -0
0 0 0 0 0 0 0 0 0 0 0 0 0 0 0 0 0 0 0 0 0 0 0 0 0 0 0 0 0 0 0 0 0 0 0 0 0 0 0 0 0 0 0 0 0
0 0 0 0 0 0 0 0 0 0 0 0 0 0 0 0 0 0 0 0 0 0 0 0 0 0 0 0 0 0 0 0 0 0 0 0 0 0 0 0 0 0 0 0 0
0 0 0 0 0 0 0 0 0 0 0 0 0 0 0 0 0 0 0 0 0 0 0 0 0 0 0 0 0 0 0 0 0 0 0 0 0 0 0 0 0 0 0 0 0
Wind_Speed_500mb
7 7 8 8 10 11 12 13 13 15 17 18 20 23 25 27 29 33 29 18 20 13 13 10 7 3 3 6 6 4 5 8 13 7 7 17 6 3 11 19 29 21 30 35 35
12 12 11 12 12 13 14 16 17 18 19 21 22 24 26 30 32 28 12 4 1 2 8 8 5 8 9 7 6 7 6 9 14 18 14 36 28 29 19 33 40 37 40 43 38
16 16 16 17 18 18 19 20 21 21 22 22 23 25 26 28 28 4 1 2 5 5 4 9 11 13 19 17 13 10 8 14 28 43 24 20 31 31 32 18 42 45 56 54 34
22 22 22 22 22 22 22 22 23 25 26 25 25 25 24 20 9 4 6 8 16 14 13 14 13 13 10 13 25 15 30 33 37 34 19 11 28 32 46 50 51 56 58 58 53
25 25 23 23 23 24 24 25 24 26 27 27 26 27 23 9 16 27 26 29 25 21 16 16 18 21 13 14 23 15 25 37 38 31 33 35 35 26 67 61 59 60 51 48 43
25 23 22 22 22 24 26 27 27 27 28 28 28 26 19 14 21 27 23 16 12 13 14 21 9 14 28 23 19 25 28 32 41 50 54 32 32 23 56 53 55 54 50 42 43
26 25 23 22 21 22 23 24 25 26 26 25 25 23 24 29 26 25 24 21 19 15 17 16 24 16 12 12 14 21 12 20 34 40 21 18 14 19 49 42 28 34 39 46 41
24 22 19 18 18 20 21 22 22 23 23 23 20 17 15 18 22 20 22 24 18 19 22 26 26 19 17 19 17 13 13 9 13 21 11 16 16 21 34 35 43 58 63 56 59
21 18 17 16 16 18 21 21 23 24 22 19 13 10 10 10 7 8 8 7 8 14 20 17 10 10 17 7 10 15 11 20 23 30 9 11 10 18 40 51 55 73 64 52 51
21 19 18 15 15 17 20 21 22 18 12 6 5 6 10 9 10 10 7 7 5 7 4 8 9 6 7 7 9 14 22 22 27 16 14 13 19 19 40 49 55 58 57 44 22
24 22 19 16 16 18 17 15 13 7 7 12 15 27 23 21 19 15 7 12 12 10 8 17 6 12 20 20 21 10 16 22 21 19 23 28 30 19 34 58 57 54 54 14 48
28 25 21 17 13 11 8 2 5 5 18 35 43 37 31 33 8 9 12 13 12 12 22 6 13 23 14 13 16 19 22 25 17 14 15 21 31 38 38 44 54 29 48 50 38
30 26 23 20 13 9 3 2 2 11 10 13 15 10 8 14 8 13 16 9 11 14 15 19 11 21 10 14 20 22 23 20 16 13 13 18 15 15 18 10 50 55 54 48 42
29 22 20 15 5 5 5 5 8 20 7 13 8 5 3 8 6 9 18 9 7 9 11 12 8 4 8 14 12 18 15 3 10 8 5 14 10 12 31 8 29 41 46 39 33
36 22 18 18 12 7 9 7 10 8 9 7 7 7 9 4 6 3 13 5 10 12 4 4 14 9 12 11 3 8 7 7 10 9 10 15 9 9 13 20 18 27 38 33 31
28 26 21 16 15 19 14 9 7 4 14 8 9 9 8 9 6 7 4 3 5 5 10 19 4 5 9 6 0 7 7 17 15 9 4 7 8 8 8 16 12 25 33 30 29
31 28 25 20 16 14 14 10 5 9 4 10 6 9 7 9 10 11 9 8 8 6 10 7 15 8 5 5 6 3 7 8 3 2 10 14 8 8 6 19 25 30 37 30 25
29 29 24 21 17 16 18 4 14 2 13 6 6 7 8 14 12 14 8 16 19 16 5 8 9 9 10 4 4 9 2 6 9 5 8 13 10 9 14 41 47 44 37 29 26
26 22 20 21 19 20 11 9 10 14 8 15 9 10 16 19 15 5 15 17 11 2 7 6 4 5 4 6 4 7 4 5 4 6 4 10 10 15 27 23 31 36 34 27 20
26 21 27 21 17 15 4 8 14 15 7 6 13 13 12 8 9 12 10 7 7 10 8 6 9 1 6 5 4 4 7 3 3 7 9 11 9 13 13 20 19 21 29 20 15
21 12 17 33 26 13 9 12 17 28 13 11 12 21 20 13 13 9 7 4 8 9 12 7 3 6 2 8 11 4 3 8 2 6 7 16 12 14 12 12 21 22 19 13 9
21 3 11 36 13 13 15 11 14 13 12 11 6 10 12 10 13 16 16 13 14 14 8 12 6 9 16 17 17 13 18 14 13 12 8 21 29 11 14 19 27 16 11 6 3
15 11 23 49 10 17 9 15 20 12 17 10 12 16 5 10 8 14 13 22 19 7 5 4 3 4 15 10 5 5 7 4 8 4 15 20 12 10 19 15 10 12 12 6 5
19 7 11 37 28 9 20 21 22 20 24 25 8 8 6 12 10 4 3 6 13 12 11 6 6 11 12 19 21 13 18 20 6 10 21 26 38 40 26 15 21 13 11 10 10
23 8 18 11 18 21 10 5 29 18 17 6 7 19 15 10 12 24 18 7 17 14 6 2 8 3 17 20 19 20 26 36 31 31 24 45 44 46 38 9 13 9 10 5 11
14 11 12 4 28 27 25 11 19 10 17 14 16 7 15 17 11 2 6 3 4 2 7 5 7 6 12 11 20 30 43 37 37 41 44 43 47 25 19 9 2 2 7 2 10
22 17 8 16 7 10 23 24 11 10 10 4 4 6 6 6 21 16 5 8 2 6 7 5 7 4 12 4 8 14 36 40 37 39 39 36 25 4 4 1 5 9 10 16 19
Wind_Direction_500mb
281 296 308 316 321 323 323 324 325 324 322 322 322 325 324 325 324 316 311 286 291 278 255 242 239 263 185 236 248 295 293 274 284 307 270 130 167 259 267 269 280 263 266 277 283
288 295 299 301 303 306 308 310 311 311 313 315 316 318 320 322 323 314 305 333 62 181 225 224 212 222 231 213 203 234 238 261 321 338 327 325 335 327 318 291 285 289 286 278 261
281 286 290 295 299 302 302 302 303 305 306 308 311 313 318 325 327 240 220 72 60 53 165 202 232 230 242 252 208 210 227 284 308 318 340 332 304 296 288 277 273 291 305 305 289
283 288 292 295 297 299 300 300 302 304 305 307 309 310 316 322 303 313 264 272 296 296 260 214 213 208 232 241 230 253 253 274 290 291 305 283 292 302 285 268 272 282 288 292 291
279 284 289 293 297 298 298 300 302 302 302 303 303 303 310 306 257 270 282 278 276 276 234 203 219 226 253 262 298 259 257 263 288 294 285 285 274 284 282 277 276 280 290 285 290
271 276 281 286 291 296 299 303 306 305 304 303 299 296 289 241 265 266 272 269 253 232 217 206 226 260 284 282 269 296 328 309 286 277 273 267 269 288 280 282 280 279 279 287 285
269 276 281 287 293 297 303 307 311 310 309 305 298 289 271 265 263 269 274 270 255 233 225 245 249 254 305 311 335 330 323 286 273 267 246 209 297 234 276 301 301 285 289 288 287
259 267 275 281 287 295 302 308 310 311 308 304 296 278 257 268 265 271 269 272 258 242 232 223 233 248 259 279 303 276 252 281 265 268 152 129 271 284 300 332 320 304 291 292 298
257 259 264 272 286 297 305 311 313 309 305 298 281 243 263 293 277 291 276 227 274 234 235 247 235 239 282 238 291 234 261 271 284 277 130 162 245 274 287 283 284 281 284 293 301
247 252 259 271 291 302 309 317 314 302 292 291 229 241 246 239 272 279 298 214 143 163 114 159 202 221 232 227 241 280 297 311 310 315 307 261 248 252 275 294 281 281 293 299 60
240 244 251 265 295 310 320 337 329 309 294 256 279 276 291 263 278 279 226 161 136 182 208 185 212 205 229 240 264 314 309 298 298 307 299 285 289 308 293 276 286 292 292 325 72
240 243 249 265 294 315 328 18 309 298 303 279 268 257 256 256 261 271 161 174 185 214 210 129 227 238 266 326 310 297 286 284 279 284 325 320 300 290 276 270 269 289 72 74 66
247 249 257 264 287 274 232 246 300 330 261 295 226 229 219 256 242 178 182 199 201 232 232 216 262 329 311 296 275 272 271 291 313 343 303 300 282 268 280 346 79 70 74 67 60
254 255 247 240 246 212 195 193 303 325 270 189 172 178 168 157 197 233 190 202 202 252 238 239 223 196 248 260 253 277 261 320 301 335 236 45 282 327 281 77 81 77 73 69 66
232 230 214 191 182 210 211 238 310 338 295 110 135 165 169 215 149 78 162 169 251 189 207 199 169 185 213 230 272 262 10 280 254 244 307 233 249 245 235 107 103 91 88 78 72
207 214 224 225 215 226 227 240 304 201 242 132 130 163 184 181 151 127 133 205 273 307 214 261 103 278 230 230 282 11 296 269 257 218 284 238 212 304 92 156 123 110 102 96 80
218 221 219 199 193 223 205 167 207 228 149 151 153 178 232 163 166 190 174 188 219 238 219 266 226 204 209 250 126 85 329 308 276 119 212 51 3 258 348 171 153 132 111 95 84
198 186 188 214 200 182 171 152 210 253 256 102 110 188 227 148 222 191 241 236 227 242 261 238 291 124 161 210 10 175 338 191 265 320 308 2 236 246 84 85 102 108 105 87 67
185 201 203 203 188 184 177 213 195 208 296 269 169 238 228 228 216 228 228 262 276 78 236 322 203 163 149 66 62 141 191 75 39 234 212 232 276 289 116 105 112 109 98 89 73
189 194 210 209 193 186 236 234 232 218 15 320 244 251 271 253 177 201 223 120 105 34 345 30 307 110 83 109 219 189 111 42 174 260 240 261 281 265 94 138 124 109 106 110 117
195 190 203 196 195 177 220 222 251 256 224 226 239 254 272 288 299 282 261 93 144 111 52 110 206 240 51 180 191 156 195 210 253 203 252 274 257 96 86 109 129 128 131 142 144
190 193 185 171 161 202 214 187 230 218 255 255 280 272 259 281 282 260 240 251 84 122 169 202 188 237 241 288 310 275 266 266 247 254 243 257 258 26 109 119 130 142 170 192 177
185 177 181 173 202 214 214 216 227 198 207 203 231 222 259 244 238 241 246 76 82 68 38 40 241 320 322 288 70 88 42 0 304 255 247 267 267 53 98 125 170 192 199 253 305
171 158 168 203 239 255 212 219 212 211 240 236 233 268 257 246 259 276 280 127 106 103 97 56 225 181 230 262 324 301 291 274 255 277 286 274 287 290 289 313 292 186 192 214 231
179 213 182 191 218 229 273 220 217 200 212 208 247 232 220 236 256 248 252 342 118 129 114 131 252 267 278 290 305 295 277 274 273 266 257 272 280 279 291 310 64 104 116 153 248
198 177 182 333 194 201 217 228 225 235 161 201 230 231 232 235 188 248 84 56 239 89 139 157 254 19 286 276 270 269 266 270 270 268 267 267 269 294 34 37 3 83 138 11 345
213 181 163 169 169 178 212 215 208 205 225 184 238 258 196 12 66 78 51 347 320 159 180 206 163 138 254 35 345 299 248 249 256 260 265 273 284 350 305 254 75 36 329 300 293
Wind_Speed_850mb
7 7 8 8 10 11 12 13 13 15 17 18 20 23 25 27 29 33 29 18 20 13 13 10 7 3 3 6 6 4 5 8 13 7 7 17 6 3 11 19 29 21 30 35 35
12 12 11 12 12 13 14 16 17 18 19 21 22 24 26 30 32 28 12 4 1 2 8 8 5 8 9 7 6 7 6 9 14 18 14 36 28 29 19 33 40 37 40 43 38
16 16 16 17 18 18 19 20 21 21 22 22 23 25 26 28 28 4 1 2 5 5 4 9 11 13 19 17 13 10 8 14 28 43 24 20 31 31 32 18 42 45 56 54 34
22 22 22 22 22 22 22 22 23 25 26 25 25 25 24 20 9 4 6 8 16 14 13 14 13 13 10 13 25 15 30 33 37 34 19 11 28 32 46 50 51 56 58 58 53
25 25 23 23 23 24 24 25 24 26 27 27 26 27 23 9 16 27 26 29 25 21 16 16 18 21 13 14 23 15 25 37 38 31 33 35 35 26 67 61 59 60 51 48 43
25 23 22 22 22 24 26 27 27 27 28 28 28 26 19 14 21 27 23 16 12 13 14 21 9 14 28 23 19 25 28 32 41 50 54 32 32 23 56 53 55 54 50 42 43
26 25 23 22 21 22 23 24 25 26 26 25 25 23 24 29 26 25 24 21 19 15 17 16 24 16 12 12 14 21 12 20 34 40 21 18 14 19 49 42 28 34 39 46 41
24 22 19 18 18 20 21 22 22 23 23 23 20 17 15 18 22 20 22 24 18 19 22 26 26 19 17 19 17 13 13 9 13 21 11 16 16 21 34 35 43 58 63 56 59
21 18 17 16 16 18 21 21 23 24 22 19 13 10 10 10 7 8 8 7 8 14 20 17 10 10 17 7 10 15 11 20 23 30 9 11 10 18 40 51 55 73 64 52 51
21 19 18 15 15 17 20 21 22 18 12 6 5 6 10 9 10 10 7 7 5 7 4 8 9 6 7 7 9 14 22 22 27 16 14 13 19 19 40 49 55 58 57 44 22
24 22 19 16 16 18 17 15 13 7 7 12 15 27 23 21 19 15 7 12 12 10 8 17 6 12 20 20 21 10 16 22 21 19 23 28 30 19 34 58 57 54 54 14 48
28 25 21 17 13 11 8 2 5 5 18 35 43 37 31 33 8 9 12 13 12 12 22 6 13 23 14 13 16 19 22 25 17 14 15 21 31 38 38 44 54 29 48 50 38
30 26 23 20 13 9 3 2 2 11 10 13 15 10 8 14 8 13 16 9 11 14 15 19 11 21 10 14 20 22 23 20 16 13 13 18 15 15 18 10 50 55 54 48 42
29 22 20 15 5 5 5 5 8 20 7 13 8 5 3 8 6 9 18 9 7 9 11 12 8 4 8 14 12 18 15 3 10 8 5 14 10 12 31 8 29 41 46 39 33
36 22 18 18 12 7 9 7 10 8 9 7 7 7 9 4 6 3 13 5 10 12 4 4 14 9 12 11 3 8 7 7 10 9 10 15 9 9 13 20 18 27 38 33 31
28 26 21 16 15 19 14 9 7 4 14 8 9 9 8 9 6 7 4 3 5 5 10 19 4 5 9 6 0 7 7 17 15 9 4 7 8 8 8 16 12 25 33 30 29
31 28 25 20 16 14 14 10 5 9 4 10 6 9 7 9 10 11 9 8 8 6 10 7 15 8 5 5 6 3 7 8 3 2 10 14 8 8 6 19 25 30 37 30 25
29 29 24 21 17 16 18 4 14 2 13 6 6 7 8 14 12 14 8 16 19 16 5 8 9 9 10 4 4 9 2 6 9 5 8 13 10 9 14 41 47 44 37 29 26
26 22 20 21 19 20 11 9 10 14 8 15 9 10 16 19 15 5 15 17 11 2 7 6 4 5 4 6 4 7 4 5 4 6 4 10 10 15 27 23 31 36 34 27 20
26 21 27 21 17 15 4 8 14 15 7 6 13 13 12 8 9 12 10 7 7 10 8 6 9 1 6 5 4 4 7 3 3 7 9 11 9 13 13 20 19 21 29 20 15
21 12 17 33 26 13 9 12 17 28 13 11 12 21 20 13 13 9 7 4 8 9 12 7 3 6 2 8 11 4 3 8 2 6 7 16 12 14 12 12 21 22 19 13 9
21 3 11 36 13 13 15 11 14 13 12 11 6 10 12 10 13 16 16 13 14 14 8 12 6 9 16 17 17 13 18 14 13 12 8 21 29 11 14 19 27 16 11 6 3
15 11 23 49 10 17 9 15 20 12 17 10 12 16 5 10 8 14 13 22 19 7 5 4 3 4 15 10 5 5 7 4 8 4 15 20 12 10 19 15 10 12 12 6 5
19 7 11 37 28 9 20 21 22 20 24 25 8 8 6 12 10 4 3 6 13 12 11 6 6 11 12 19 21 13 18 20 6 10 21 26 38 40 26 15 21 13 11 10 10
23 8 18 11 18 21 10 5 29 18 17 6 7 19 15 10 12 24 18 7 17 14 6 2 8 3 17 20 19 20 26 36 31 31 24 45 44 46 38 9 13 9 10 5 11
14 11 12 4 28 27 25 11 19 10 17 14 16 7 15 17 11 2 6 3 4 2 7 5 7 6 12 11 20 30 43 37 37 41 44 43 47 25 19 9 2 2 7 2 10
22 17 8 16 7 10 23 24 11 10 10 4 4 6 6 6 21 16 5 8 2 6 7 5 7 4 12 4 8 14 36 40 37 39 39 36 25 4 4 1 5 9 10 16 19
Wind_Direction_850mb
281 296 308 316 321 323 323 324 325 324 322 322 322 325 324 325 324 316 311 286 291 278 255 242 239 263 185 236 248 295 293 274 284 307 270 130 167 259 267 269 280 263 266 277 283
288 295 299 301 303 306 308 310 311 311 313 315 316 318 320 322 323 314 305 333 62 181 225 224 212 222 231 213 203 234 238 261 321 338 327 325 335 327 318 291 285 289 286 278 261
281 286 290 295 299 302 302 302 303 305 306 308 311 313 318 325 327 240 220 72 60 53 165 202 232 230 242 252 208 210 227 284 308 318 340 332 304 296 288 277 273 291 305 305 289
283 288 292 295 297 299 300 300 302 304 305 307 309 310 316 322 303 313 264 272 296 296 260 214 213 208 232 241 230 253 253 274 290 291 305 283 292 302 285 268 272 282 288 292 291
279 284 289 293 297 298 298 300 302 302 302 303 303 303 310 306 257 270 282 278 276 276 234 203 219 226 253 262 298 259 257 263 288 294 285 285 274 284 282 277 276 280 290 285 290
271 276 281 286 291 296 299 303 306 305 304 303 299 296 289 241 265 266 272 269 253 232 217 206 226 260 284 282 269 296 328 309 286 277 273 267 269 288 280 282 280 279 279 287 285
269 276 281 287 293 297 303 307 311 310 309 305 298 289 271 265 263 269 274 270 255 233 225 245 249 254 305 311 335 330 323 286 273 267 246 209 297 234 276 301 301 285 289 288 287
259 267 275 281 287 295 302 308 310 311 308 304 296 278 257 268 265 271 269 272 258 242 232 223 233 248 259 279 303 276 252 281 265 268 152 129 271 284 300 332 320 304 291 292 298
257 259 264 272 286 297 305 311 313 309 305 298 281 243 263 293 277 291 276 227 274 234 235 247 235 239 282 238 291 234 261 271 284 277 130 162 245 274 287 283 284 281 284 293 301
247 252 259 271 291 302 309 317 314 302 292 291 229 241 246 239 272 279 298 214 143 163 114 159 202 221 232 227 241 280 297 311 310 315 307 261 248 252 275 294 281 281 293 299 60
240 244 251 265 295 310 320 337 329 309 294 256 279 276 291 263 278 279 226 161 136 182 208 185 212 205 229 240 264 314 309 298 298 307 299 285 289 308 293 276 286 292 292 325 72
240 243 249 265 294 315 328 18 309 298 303 279 268 257 256 256 261 271 161 174 185 214 210 129 227 238 266 326 310 297 286 284 279 284 325 320 300 290 276 270 269 289 72 74 66
247 249 257 264 287 274 232 246 300 330 261 295 226 229 219 256 242 178 182 199 201 232 232 216 262 329 311 296 275 272 271 291 313 343 303 300 282 268 280 346 79 70 74 67 60
254 255 247 240 246 212 195 193 303 325 270 189 172 178 168 157 197 233 190 202 202 252 238 239 223 196 248 260 253 277 261 320 301 335 236 45 282 327 281 77 81 77 73 69 66
232 230 214 191 182 210 211 238 310 338 295 110 135 165 169 215 149 78 162 169 251 189 207 199 169 185 213 230 272 262 10 280 254 244 307 233 249 245 235 107 103 91 88 78 72
207 214 224 225 215 226 227 240 304 201 242 132 130 163 184 181 151 127 133 205 273 307 214 261 103 278 230 230 282 11 296 269 257 218 284 238 212 304 92 156 123 110 102 96 80
218 221 219 199 193 223 205 167 207 228 149 151 153 178 232 163 166 190 174 188 219 238 219 266 226 204 209 250 126 85 329 308 276 119 212 51 3 258 348 171 153 132 111 95 84
198 186 188 214 200 182 171 152 210 253 256 102 110 188 227 148 222 191 241 236 227 242 261 238 291 124 161 210 10 175 338 191 265 320 308 2 236 246 84 85 102 108 105 87 67
185 201 203 203 188 184 177 213 195 208 296 269 169 238 228 228 216 228 228 262 276 78 236 322 203 163 149 66 62 141 191 75 39 234 212 232 276 289 116 105 112 109 98 89 73
189 194 210 209 193 186 236 234 232 218 15 320 244 251 271 253 177 201 223 120 105 34 345 30 307 110 83 109 219 189 111 42 174 260 240 261 281 265 94 138 124 109 106 110 117
195 190 203 196 195 177 220 222 251 256 224 226 239 254 272 288 299 282 261 93 144 111 52 110 206 240 51 180 191 156 195 210 253 203 252 274 257 96 86 109 129 128 131 142 144
190 193 185 171 161 202 214 187 230 218 255 255 280 272 259 281 282 260 240 251 84 122 169 202 188 237 241 288 310 275 266 266 247 254 243 257 258 26 109 119 130 142 170 192 177
185 177 181 173 202 214 214 216 227 198 207 203 231 222 259 244 238 241 246 76 82 68 38 40 241 320 322 288 70 88 42 0 304 255 247 267 267 53 98 125 170 192 199 253 305
171 158 168 203 239 255 212 219 212 211 240 236 233 268 257 246 259 276 280 127 106 103 97 56 225 181 230 262 324 301 291 274 255 277 286 274 287 290 289 313 292 186 192 214 231
179 213 182 191 218 229 273 220 217 200 212 208 247 232 220 236 256 248 252 342 118 129 114 131 252 267 278 290 305 295 277 274 273 266 257 272 280 279 291 310 64 104 116 153 248
198 177 182 333 194 201 217 228 225 235 161 201 230 231 232 235 188 248 84 56 239 89 139 157 254 19 286 276 270 269 266 270 270 268 267 267 269 294 34 37 3 83 138 11 345
213 181 163 169 169 178 212 215 208 205 225 184 238 258 196 12 66 78 51 347 320 159 180 206 163 138 254 35 345 299 248 249 256 260 265 273 284 350 305 254 75 36 329 300 293